FALCON 9 R/B, 42819

Orbit data source: Space-Track

FALCON 9 R/B, 42819 is space debris in HEO originally from a launch on Wed, 05 Jul 2017 UTC launched from the Air Force Eastern Test Range (AFETR). Debris objects in space refer to the collection of defunct objects orbiting the Earth. Examples of debris include non-operational satellites, rocket bodies, and fragments generated from explosions, collisions, or faulty payload assembly.

Loading next visibility...
Identifier
42819, 2017-041B
Orbit
HEO
Country
Flag of USUS
Related business
Manufacturer
SpaceX
Mission
Spacecraft
Bus & Motor
F9ST2, Unknown motor
Mass
~4,000 kg wet, ~4,000 kg dry
Launch date (UTC)
2017-07-05 (9 years ago)
Launch vehicle
Unknown
Launch site
Air Force Eastern Test Range (AFETR)
Object type
Payload
Rocket body
Debris
Shape & HBR
Cyl, 7.8 m
Radar Cross Section
39.980 m², Large (>1 m²)

Expand to show TLE details & history
Last TLE update: 1 day ago

TLE from 1 day ago
0 FALCON 9 R/B
1 42819U 17041B   26121.56247277  .00013988  00000-0  31280-2 0  9994
2 42819  25.1961 195.2784 7477005  51.7219 354.3413  2.04858533 62426
Epoch: 2026-05-01T13:29Z
TLE epoch observation values (Epoch: 2026-05-01T13:29:57.647Z)
Latitude
0.00006°
Longitude
133.45817°
Altitude
1,479.738 km
Speed
9.286 km/s
True Right ascension
13h 01m 45s
True Declination
0° 00' 00"
Sunlit
Object was in full shadow at epoch
Visualization orbit readout
Latitude
Unknown
Longitude
Unknown
Altitude
Unknown
Speed
Unknown
Apparent Right ascension
Unknown
Apparent Declination
Unknown
Sunlit
N/A
Visualization observer readout
Local Sidereal Time
06:31:53
Azimuth
Unknown
Elevation
Unknown
Doppler factor
Unknown
Orbital elements
Apogee altitude
39,397.645 km
Perigee altitude
230.093 km
Semi-major axis
26,192.006 km
Eccentricity
0.7477
Inclination
25.1961°
RAAN
195.2784°
Arg. of periapsis
51.7219°
True anomaly
307.9121°
Mean anomaly
354.3413°
Eccentric anomaly
338.96288°
Mean motion
0.51202 °/min
Orbital period
703.09 mins
BSTAR
0.003128
Loading maneuver chart data...
Computing Atmospheric mass density...
Loading historical data...
Loading historical data...
Loading historical data...
Loading historical data...
Loading historical data...
Loading historical data...
Loading historical data...
Other satellites on launch #41 in the year 2017 (2017-07-05 UTC)

Documentation

Showing up to 5 results
|